owner,sensor,date,latitude,longitude,vertical_datum,mass_concentration_of_oxygen_in_sea_water,qcFlag 
DISL,ioos:station:DISL:DISL:1,2014-09-01T00:00:00Z,30.2513,-88.0778,2.159,6.79,1111122 
DISL,ioos:station:DISL:DISL:1,2014-09-01T00:30:00Z,30.2513,-88.0778,2.163,6.01,1111122 
DISL,ioos:station:DISL:DISL:1,2014-09-01T01:00:00Z,30.2513,-88.0778,2.179,6.12,1111122 
DISL,ioos:station:DISL:DISL:1,2014-09-01T01:30:00Z,30.2513,-88.0778,2.202,5.47,1111122 
DISL,ioos:station:DISL:DISL:1,2014-09-01T02:00:00Z,30.2513,-88.0778,2.206,5.62,1111122 
DISL,ioos:station:DISL:DISL:1,2014-09-01T02:30:00Z,30.2513,-88.0778,2.228,5.46,1111122 
DISL,ioos:station:DISL:DISL:1,2014-09-01T03:00:00Z,30.2513,-88.0778,2.24,5.73,1111122 
DISL,ioos:station:DISL:DISL:1,2014-09-01T03:30:00Z,30.2513,-88.0778,2.244,5.97,1111122 
DISL,ioos:station:DISL:DISL:1,2014-09-01T04:00:00Z,30.2513,-88.0778,2.258,6.09,1111122 
DISL,ioos:station:DISL:DISL:1,2014-09-01T04:30:00Z,30.2513,-88.0778,2.276,6.08,1111122 
DISL,ioos:station:DISL:DISL:1,2014-09-01T05:00:00Z,30.2513,-88.0778,2.289,5.79,1111122 
DISL,ioos:station:DISL:DISL:1,2014-09-01T05:30:00Z,30.2513,-88.0778,2.306,5.76,1111122 
DISL,ioos:station:DISL:DISL:1,2014-09-01T06:00:00Z,30.2513,-88.0778,2.312,5.9,1111122 
DISL,ioos:station:DISL:DISL:1,2014-09-01T06:30:00Z,30.2513,-88.0778,2.341,5.67,1111122 
DISL,ioos:station:DISL:DISL:1,2014-09-01T07:00:00Z,30.2513,-88.0778,2.34,5.58,1111122 
DISL,ioos:station:DISL:DISL:1,2014-09-01T07:30:00Z,30.2513,-88.0778,2.359,5.31,1111122 
DISL,ioos:station:DISL:DISL:1,2014-09-01T08:00:00Z,30.2513,-88.0778,2.358,5.43,1111122 
DISL,ioos:station:DISL:DISL:1,2014-09-01T08:30:00Z,30.2513,-88.0778,2.357,5.4,1111122 
DISL,ioos:station:DISL:DISL:1,2014-09-01T09:00:00Z,30.2513,-88.0778,2.357,5.4,1111122 
DISL,ioos:station:DISL:DISL:1,2014-09-01T09:30:00Z,30.2513,-88.0778,2.38,5.72,1111122 
DISL,ioos:station:DISL:DISL:1,2014-09-01T10:00:00Z,30.2513,-88.0778,2.357,5.43,1111122 
DISL,ioos:station:DISL:DISL:1,2014-09-01T10:30:00Z,30.2513,-88.0778,2.357,5.33,1111122 
DISL,ioos:station:DISL:DISL:1,2014-09-01T11:00:00Z,30.2513,-88.0778,2.336,5.0,1111122 
DISL,ioos:station:DISL:DISL:1,2014-09-01T11:30:00Z,30.2513,-88.0778,2.32,5.16,1111122 
DISL,ioos:station:DISL:DISL:1,2014-09-01T12:00:00Z,30.2513,-88.0778,2.298,5.17,1111122 
DISL,ioos:station:DISL:DISL:1,2014-09-01T12:30:00Z,30.2513,-88.0778,2.285,5.12,1111122 
DISL,ioos:station:DISL:DISL:1,2014-09-01T13:00:00Z,30.2513,-88.0778,2.25,6.1,1111122 
DISL,ioos:station:DISL:DISL:1,2014-09-01T13:30:00Z,30.2513,-88.0778,2.231,6.37,1111122 
DISL,ioos:station:DISL:DISL:1,2014-09-01T14:00:00Z,30.2513,-88.0778,2.211,6.75,1111122 
DISL,ioos:station:DISL:DISL:1,2014-09-01T14:30:00Z,30.2513,-88.0778,2.198,6.83,1111122 
DISL,ioos:station:DISL:DISL:1,2014-09-01T15:00:00Z,30.2513,-88.0778,2.182,6.82,1111122 
DISL,ioos:station:DISL:DISL:1,2014-09-01T15:30:00Z,30.2513,-88.0778,2.166,7.23,1111122 
DISL,ioos:station:DISL:DISL:1,2014-09-01T16:00:00Z,30.2513,-88.0778,2.146,7.41,1111122 
DISL,ioos:station:DISL:DISL:1,2014-09-01T16:30:00Z,30.2513,-88.0778,2.127,7.46,1111122 
DISL,ioos:station:DISL:DISL:1,2014-09-01T17:00:00Z,30.2513,-88.0778,2.117,7.34,1111122 
DISL,ioos:station:DISL:DISL:1,2014-09-01T17:30:00Z,30.2513,-88.0778,2.107,7.35,1111122 
DISL,ioos:station:DISL:DISL:1,2014-09-01T18:00:00Z,30.2513,-88.0778,2.059,6.94,1111122 
DISL,ioos:station:DISL:DISL:1,2014-09-01T18:30:00Z,30.2513,-88.0778,2.071,7.24,1111122 
DISL,ioos:station:DISL:DISL:1,2014-09-01T19:00:00Z,30.2513,-88.0778,2.062,7.33,1111122 
DISL,ioos:station:DISL:DISL:1,2014-09-01T19:30:00Z,30.2513,-88.0778,2.061,7.5,1111122 
DISL,ioos:station:DISL:DISL:1,2014-09-01T20:00:00Z,30.2513,-88.0778,2.039,7.42,1111122 
DISL,ioos:station:DISL:DISL:1,2014-09-01T20:30:00Z,30.2513,-88.0778,2.055,7.36,1111122 
DISL,ioos:station:DISL:DISL:1,2014-09-01T21:00:00Z,30.2513,-88.0778,2.044,7.17,1111122 
DISL,ioos:station:DISL:DISL:1,2014-09-01T21:30:00Z,30.2513,-88.0778,2.05,6.85,1111122 
DISL,ioos:station:DISL:DISL:1,2014-09-01T22:00:00Z,30.2513,-88.0778,2.064,6.92,1111122 
DISL,ioos:station:DISL:DISL:1,2014-09-01T22:30:00Z,30.2513,-88.0778,2.063,6.4,1111122 
DISL,ioos:station:DISL:DISL:1,2014-09-01T23:00:00Z,30.2513,-88.0778,2.073,7.05,1111122 
DISL,ioos:station:DISL:DISL:1,2014-09-01T23:30:00Z,30.2513,-88.0778,2.092,6.98,1111122 
DISL,ioos:station:DISL:DISL:1,2014-09-02T00:00:00Z,30.2513,-88.0778,2.111,6.9,1111122 
DISL,ioos:station:DISL:DISL:1,2014-09-02T00:30:00Z,30.2513,-88.0778,2.121,6.57,1111122 
DISL,ioos:station:DISL:DISL:1,2014-09-02T01:00:00Z,30.2513,-88.0778,2.145,6.59,1111122 
DISL,ioos:station:DISL:DISL:1,2014-09-02T01:30:00Z,30.2513,-88.0778,2.163,6.16,1111122 
DISL,ioos:station:DISL:DISL:1,2014-09-02T02:00:00Z,30.2513,-88.0778,2.178,6.31,1111122 
DISL,ioos:station:DISL:DISL:1,2014-09-02T02:30:00Z,30.2513,-88.0778,2.2,6.33,1111122 
DISL,ioos:station:DISL:DISL:1,2014-09-02T03:00:00Z,30.2513,-88.0778,2.205,6.21,1111122 
DISL,ioos:station:DISL:DISL:1,2014-09-02T03:30:00Z,30.2513,-88.0778,2.229,6.08,1111122 
DISL,ioos:station:DISL:DISL:1,2014-09-02T04:00:00Z,30.2513,-88.0778,2.239,6.13,1111122 
DISL,ioos:station:DISL:DISL:1,2014-09-02T04:30:00Z,30.2513,-88.0778,2.275,6.05,1111122 
DISL,ioos:station:DISL:DISL:1,2014-09-02T05:00:00Z,30.2513,-88.0778,2.274,6.16,1111122 
DISL,ioos:station:DISL:DISL:1,2014-09-02T05:30:00Z,30.2513,-88.0778,2.308,5.9,1111122 
DISL,ioos:station:DISL:DISL:1,2014-09-02T06:00:00Z,30.2513,-88.0778,2.303,6.06,1111122 
DISL,ioos:station:DISL:DISL:1,2014-09-02T06:30:00Z,30.2513,-88.0778,2.333,5.72,1111122 
DISL,ioos:station:DISL:DISL:1,2014-09-02T07:00:00Z,30.2513,-88.0778,2.348,6.45,1111122 
DISL,ioos:station:DISL:DISL:1,2014-09-02T07:30:00Z,30.2513,-88.0778,2.353,5.99,1111122 
DISL,ioos:station:DISL:DISL:1,2014-09-02T08:00:00Z,30.2513,-88.0778,2.368,6.21,1111122 
DISL,ioos:station:DISL:DISL:1,2014-09-02T08:30:00Z,30.2513,-88.0778,2.376,6.04,1111122 
DISL,ioos:station:DISL:DISL:1,2014-09-02T09:00:00Z,30.2513,-88.0778,2.384,5.61,1111122 
DISL,ioos:station:DISL:DISL:1,2014-09-02T09:30:00Z,30.2513,-88.0778,2.381,5.59,1111122 
DISL,ioos:station:DISL:DISL:1,2014-09-02T10:00:00Z,30.2513,-88.0778,2.371,5.28,1111122 
DISL,ioos:station:DISL:DISL:1,2014-09-02T10:30:00Z,30.2513,-88.0778,2.367,5.4,1111122 
DISL,ioos:station:DISL:DISL:1,2014-09-02T11:00:00Z,30.2513,-88.0778,2.353,4.67,1111122 
DISL,ioos:station:DISL:DISL:1,2014-09-02T11:30:00Z,30.2513,-88.0778,2.328,4.9,1111122 
DISL,ioos:station:DISL:DISL:1,2014-09-02T12:00:00Z,30.2513,-88.0778,2.314,5.58,1111122 
DISL,ioos:station:DISL:DISL:1,2014-09-02T12:30:00Z,30.2513,-88.0778,2.29,4.8,1111122 
DISL,ioos:station:DISL:DISL:1,2014-09-02T13:00:00Z,30.2513,-88.0778,2.264,5.59,1111122 
DISL,ioos:station:DISL:DISL:1,2014-09-02T13:30:00Z,30.2513,-88.0778,2.246,6.34,1111122 
DISL,ioos:station:DISL:DISL:1,2014-09-02T14:00:00Z,30.2513,-88.0778,2.21,6.73,1111122 
DISL,ioos:station:DISL:DISL:1,2014-09-02T14:30:00Z,30.2513,-88.0778,2.182,6.93,1111122 
DISL,ioos:station:DISL:DISL:1,2014-09-02T15:00:00Z,30.2513,-88.0778,2.171,7.08,1111122 
DISL,ioos:station:DISL:DISL:1,2014-09-02T15:30:00Z,30.2513,-88.0778,2.159,7.14,1111122 
DISL,ioos:station:DISL:DISL:1,2014-09-02T16:00:00Z,30.2513,-88.0778,2.123,7.43,1111122 
DISL,ioos:station:DISL:DISL:1,2014-09-02T16:30:00Z,30.2513,-88.0778,2.093,7.48,1111122 
DISL,ioos:station:DISL:DISL:1,2014-09-02T17:00:00Z,30.2513,-88.0778,2.082,7.45,1111122 
DISL,ioos:station:DISL:DISL:1,2014-09-02T17:30:00Z,30.2513,-88.0778,2.056,7.3,1111122 
DISL,ioos:station:DISL:DISL:1,2014-09-02T18:00:00Z,30.2513,-88.0778,2.029,7.23,1111122 
DISL,ioos:station:DISL:DISL:1,2014-09-02T18:30:00Z,30.2513,-88.0778,2.02,7.21,1111122 
DISL,ioos:station:DISL:DISL:1,2014-09-02T19:00:00Z,30.2513,-88.0778,1.992,7.2,1111122 
DISL,ioos:station:DISL:DISL:1,2014-09-02T19:30:00Z,30.2513,-88.0778,1.984,7.23,1111122 
DISL,ioos:station:DISL:DISL:1,2014-09-02T20:00:00Z,30.2513,-88.0778,1.969,7.1,1111122 
DISL,ioos:station:DISL:DISL:1,2014-09-02T20:30:00Z,30.2513,-88.0778,1.975,7.43,1111122 
DISL,ioos:station:DISL:DISL:1,2014-09-02T21:00:00Z,30.2513,-88.0778,1.966,7.93,1111122 
DISL,ioos:station:DISL:DISL:1,2014-09-02T21:30:00Z,30.2513,-88.0778,1.974,8.27,1111122 
DISL,ioos:station:DISL:DISL:1,2014-09-02T22:00:00Z,30.2513,-88.0778,1.985,8.44,1111122 
DISL,ioos:station:DISL:DISL:1,2014-09-02T22:30:00Z,30.2513,-88.0778,1.985,7.94,1111122 
DISL,ioos:station:DISL:DISL:1,2014-09-02T23:00:00Z,30.2513,-88.0778,1.996,7.3,1111122 
DISL,ioos:station:DISL:DISL:1,2014-09-02T23:30:00Z,30.2513,-88.0778,2.017,7.53,1111122 
DISL,ioos:station:DISL:DISL:1,2014-09-03T00:00:00Z,30.2513,-88.0778,2.014,7.35,1111122 
DISL,ioos:station:DISL:DISL:1,2014-09-03T00:30:00Z,30.2513,-88.0778,2.033,7.09,1111122 
DISL,ioos:station:DISL:DISL:1,2014-09-03T01:00:00Z,30.2513,-88.0778,2.064,7.1,1111122 
DISL,ioos:station:DISL:DISL:1,2014-09-03T01:30:00Z,30.2513,-88.0778,2.081,6.7,1111122 
DISL,ioos:station:DISL:DISL:1,2014-09-03T02:00:00Z,30.2513,-88.0778,2.102,6.04,1111122 
DISL,ioos:station:DISL:DISL:1,2014-09-03T02:30:00Z,30.2513,-88.0778,2.087,6.72,1111122 
DISL,ioos:station:DISL:DISL:1,2014-09-03T03:00:00Z,30.2513,-88.0778,2.125,6.67,1111122 
DISL,ioos:station:DISL:DISL:1,2014-09-03T03:30:00Z,30.2513,-88.0778,2.142,6.62,1111122 
DISL,ioos:station:DISL:DISL:1,2014-09-03T04:00:00Z,30.2513,-88.0778,2.17,6.57,1111122 
DISL,ioos:station:DISL:DISL:1,2014-09-03T04:30:00Z,30.2513,-88.0778,2.196,6.58,1111122 
DISL,ioos:station:DISL:DISL:1,2014-09-03T05:00:00Z,30.2513,-88.0778,2.225,6.45,1111122 
DISL,ioos:station:DISL:DISL:1,2014-09-03T05:30:00Z,30.2513,-88.0778,2.232,6.32,1111122 
DISL,ioos:station:DISL:DISL:1,2014-09-03T06:00:00Z,30.2513,-88.0778,2.277,6.58,1111122 
DISL,ioos:station:DISL:DISL:1,2014-09-03T06:30:00Z,30.2513,-88.0778,2.278,6.03,1111122 
DISL,ioos:station:DISL:DISL:1,2014-09-03T07:00:00Z,30.2513,-88.0778,2.284,5.43,1111122 
DISL,ioos:station:DISL:DISL:1,2014-09-03T07:30:00Z,30.2513,-88.0778,2.316,6.22,1111122 
DISL,ioos:station:DISL:DISL:1,2014-09-03T08:00:00Z,30.2513,-88.0778,2.316,5.8,1111122 
DISL,ioos:station:DISL:DISL:1,2014-09-03T08:30:00Z,30.2513,-88.0778,2.304,5.87,1111122 
DISL,ioos:station:DISL:DISL:1,2014-09-03T09:00:00Z,30.2513,-88.0778,2.33,5.84,1111122 
DISL,ioos:station:DISL:DISL:1,2014-09-03T09:30:00Z,30.2513,-88.0778,2.346,6.41,1111122 
DISL,ioos:station:DISL:DISL:1,2014-09-03T10:00:00Z,30.2513,-88.0778,2.362,6.37,1111122 
DISL,ioos:station:DISL:DISL:1,2014-09-03T10:30:00Z,30.2513,-88.0778,2.358,5.96,1111122 
DISL,ioos:station:DISL:DISL:1,2014-09-03T11:00:00Z,30.2513,-88.0778,2.351,6.8,1111122 
DISL,ioos:station:DISL:DISL:1,2014-09-03T11:30:00Z,30.2513,-88.0778,2.325,5.79,1111122 
DISL,ioos:station:DISL:DISL:1,2014-09-03T12:00:00Z,30.2513,-88.0778,2.332,5.88,1111122 
DISL,ioos:station:DISL:DISL:1,2014-09-03T12:30:00Z,30.2513,-88.0778,2.319,5.71,1111122 
DISL,ioos:station:DISL:DISL:1,2014-09-03T13:00:00Z,30.2513,-88.0778,2.284,5.6,1111122 
DISL,ioos:station:DISL:DISL:1,2014-09-03T13:30:00Z,30.2513,-88.0778,2.253,5.52,1111122 
DISL,ioos:station:DISL:DISL:1,2014-09-03T14:00:00Z,30.2513,-88.0778,2.243,5.66,1111122 
DISL,ioos:station:DISL:DISL:1,2014-09-03T14:30:00Z,30.2513,-88.0778,2.217,6.27,1111122 
DISL,ioos:station:DISL:DISL:1,2014-09-03T15:00:00Z,30.2513,-88.0778,2.204,6.87,1111122 
DISL,ioos:station:DISL:DISL:1,2014-09-03T15:30:00Z,30.2513,-88.0778,2.17,6.91,1111122 
DISL,ioos:station:DISL:DISL:1,2014-09-03T16:00:00Z,30.2513,-88.0778,2.122,7.15,1111122 
DISL,ioos:station:DISL:DISL:1,2014-09-03T16:30:00Z,30.2513,-88.0778,2.09,7.23,1111122 
DISL,ioos:station:DISL:DISL:1,2014-09-03T17:00:00Z,30.2513,-88.0778,2.072,7.55,1111122 
DISL,ioos:station:DISL:DISL:1,2014-09-03T17:30:00Z,30.2513,-88.0778,2.054,7.73,1111122 
DISL,ioos:station:DISL:DISL:1,2014-09-03T18:00:00Z,30.2513,-88.0778,2.036,7.88,1111122 
DISL,ioos:station:DISL:DISL:1,2014-09-03T18:30:00Z,30.2513,-88.0778,2.013,7.97,1111122 
DISL,ioos:station:DISL:DISL:1,2014-09-03T19:00:00Z,30.2513,-88.0778,1.988,8.12,1111122 
DISL,ioos:station:DISL:DISL:1,2014-09-03T19:30:00Z,30.2513,-88.0778,1.972,7.83,1111122 
DISL,ioos:station:DISL:DISL:1,2014-09-03T20:00:00Z,30.2513,-88.0778,1.957,7.7,1111122 
DISL,ioos:station:DISL:DISL:1,2014-09-03T20:30:00Z,30.2513,-88.0778,1.949,7.5,1111122 
DISL,ioos:station:DISL:DISL:1,2014-09-03T21:00:00Z,30.2513,-88.0778,1.93,7.81,1111122 
DISL,ioos:station:DISL:DISL:1,2014-09-03T21:30:00Z,30.2513,-88.0778,1.941,7.74,1111122 
DISL,ioos:station:DISL:DISL:1,2014-09-03T22:00:00Z,30.2513,-88.0778,1.939,7.86,1111122 
DISL,ioos:station:DISL:DISL:1,2014-09-03T22:30:00Z,30.2513,-88.0778,1.924,7.4,1111122 
DISL,ioos:station:DISL:DISL:1,2014-09-03T23:00:00Z,30.2513,-88.0778,1.903,7.45,1111122 
DISL,ioos:station:DISL:DISL:1,2014-09-03T23:30:00Z,30.2513,-88.0778,1.941,7.51,1111122 
DISL,ioos:station:DISL:DISL:1,2014-09-04T00:00:00Z,30.2513,-88.0778,1.923,7.07,1111122 
DISL,ioos:station:DISL:DISL:1,2014-09-04T00:30:00Z,30.2513,-88.0778,1.979,7.27,1111122 
DISL,ioos:station:DISL:DISL:1,2014-09-04T01:00:00Z,30.2513,-88.0778,1.987,7.04,1111122 
DISL,ioos:station:DISL:DISL:1,2014-09-04T01:30:00Z,30.2513,-88.0778,2.018,7.05,1111122 
DISL,ioos:station:DISL:DISL:1,2014-09-04T02:00:00Z,30.2513,-88.0778,2.011,6.75,1111122 
DISL,ioos:station:DISL:DISL:1,2014-09-04T02:30:00Z,30.2513,-88.0778,2.039,6.98,1111122 
DISL,ioos:station:DISL:DISL:1,2014-09-04T03:00:00Z,30.2513,-88.0778,2.085,7.05,1111122 
DISL,ioos:station:DISL:DISL:1,2014-09-04T03:30:00Z,30.2513,-88.0778,2.119,6.94,1111122 
DISL,ioos:station:DISL:DISL:1,2014-09-04T04:00:00Z,30.2513,-88.0778,2.118,6.72,1111122 
DISL,ioos:station:DISL:DISL:1,2014-09-04T04:30:00Z,30.2513,-88.0778,2.15,6.67,1111122 
DISL,ioos:station:DISL:DISL:1,2014-09-04T05:00:00Z,30.2513,-88.0778,2.173,6.39,1111122 
DISL,ioos:station:DISL:DISL:1,2014-09-04T05:30:00Z,30.2513,-88.0778,2.192,6.31,1111122 
DISL,ioos:station:DISL:DISL:1,2014-09-04T06:00:00Z,30.2513,-88.0778,2.217,6.08,1111122 
DISL,ioos:station:DISL:DISL:1,2014-09-04T06:30:00Z,30.2513,-88.0778,2.24,6.05,1111122 
DISL,ioos:station:DISL:DISL:1,2014-09-04T07:00:00Z,30.2513,-88.0778,2.269,5.97,1111122 
DISL,ioos:station:DISL:DISL:1,2014-09-04T07:30:00Z,30.2513,-88.0778,2.291,5.93,1111122 
DISL,ioos:station:DISL:DISL:1,2014-09-04T08:00:00Z,30.2513,-88.0778,2.303,5.35,1111122 
DISL,ioos:station:DISL:DISL:1,2014-09-04T08:30:00Z,30.2513,-88.0778,2.332,5.49,1111122 
DISL,ioos:station:DISL:DISL:1,2014-09-04T09:00:00Z,30.2513,-88.0778,2.351,5.35,1111122 
DISL,ioos:station:DISL:DISL:1,2014-09-04T09:30:00Z,30.2513,-88.0778,2.381,5.23,1111122 
DISL,ioos:station:DISL:DISL:1,2014-09-04T10:00:00Z,30.2513,-88.0778,2.391,5.3,1111122 
DISL,ioos:station:DISL:DISL:1,2014-09-04T10:30:00Z,30.2513,-88.0778,2.377,5.37,1111122 
DISL,ioos:station:DISL:DISL:1,2014-09-04T11:00:00Z,30.2513,-88.0778,2.373,5.2,1111122 
DISL,ioos:station:DISL:DISL:1,2014-09-04T11:30:00Z,30.2513,-88.0778,2.388,5.1,1111122 
DISL,ioos:station:DISL:DISL:1,2014-09-04T12:00:00Z,30.2513,-88.0778,2.359,5.19,1111122 
DISL,ioos:station:DISL:DISL:1,2014-09-04T12:30:00Z,30.2513,-88.0778,2.383,4.91,1111122 
DISL,ioos:station:DISL:DISL:1,2014-09-04T13:00:00Z,30.2513,-88.0778,2.338,4.89,1111122 
DISL,ioos:station:DISL:DISL:1,2014-09-04T13:30:00Z,30.2513,-88.0778,2.329,4.66,1111122 
DISL,ioos:station:DISL:DISL:1,2014-09-04T14:00:00Z,30.2513,-88.0778,2.313,5.49,1111122 
DISL,ioos:station:DISL:DISL:1,2014-09-04T14:30:00Z,30.2513,-88.0778,2.299,6.83,1111122 
DISL,ioos:station:DISL:DISL:1,2014-09-04T15:00:00Z,30.2513,-88.0778,2.292,7.1,1111122 
DISL,ioos:station:DISL:DISL:1,2014-09-04T15:30:00Z,30.2513,-88.0778,2.231,7.31,1111122 
DISL,ioos:station:DISL:DISL:1,2014-09-04T16:00:00Z,30.2513,-88.0778,2.193,7.56,1111122 
DISL,ioos:station:DISL:DISL:1,2014-09-04T16:30:00Z,30.2513,-88.0778,2.165,7.84,1111122 
DISL,ioos:station:DISL:DISL:1,2014-09-04T17:00:00Z,30.2513,-88.0778,2.123,7.99,1111122 
DISL,ioos:station:DISL:DISL:1,2014-09-04T17:30:00Z,30.2513,-88.0778,2.135,7.99,1111122 
DISL,ioos:station:DISL:DISL:1,2014-09-04T18:00:00Z,30.2513,-88.0778,2.089,8.17,1111122 
DISL,ioos:station:DISL:DISL:1,2014-09-04T18:30:00Z,30.2513,-88.0778,2.056,8.09,1111122 
DISL,ioos:station:DISL:DISL:1,2014-09-04T19:00:00Z,30.2513,-88.0778,2.036,8.01,1111122 
DISL,ioos:station:DISL:DISL:1,2014-09-04T19:30:00Z,30.2513,-88.0778,2.001,7.94,1111122 
DISL,ioos:station:DISL:DISL:1,2014-09-04T20:00:00Z,30.2513,-88.0778,1.979,8.14,1111122 
DISL,ioos:station:DISL:DISL:1,2014-09-04T20:30:00Z,30.2513,-88.0778,1.968,7.7,1111122 
DISL,ioos:station:DISL:DISL:1,2014-09-04T21:00:00Z,30.2513,-88.0778,1.956,7.7,1111122 
DISL,ioos:station:DISL:DISL:1,2014-09-04T21:30:00Z,30.2513,-88.0778,1.953,7.6,1111122 
DISL,ioos:station:DISL:DISL:1,2014-09-04T22:00:00Z,30.2513,-88.0778,1.935,7.72,1111122 
DISL,ioos:station:DISL:DISL:1,2014-09-04T22:30:00Z,30.2513,-88.0778,1.931,7.72,1111122 
DISL,ioos:station:DISL:DISL:1,2014-09-04T23:00:00Z,30.2513,-88.0778,1.926,7.8,1111122 
DISL,ioos:station:DISL:DISL:1,2014-09-04T23:30:00Z,30.2513,-88.0778,1.928,7.39,1111122 
DISL,ioos:station:DISL:DISL:1,2014-09-05T00:00:00Z,30.2513,-88.0778,1.926,7.68,1111122 
DISL,ioos:station:DISL:DISL:1,2014-09-05T00:30:00Z,30.2513,-88.0778,1.93,7.35,1111122 
DISL,ioos:station:DISL:DISL:1,2014-09-05T01:00:00Z,30.2513,-88.0778,1.937,7.3,1111122 
DISL,ioos:station:DISL:DISL:1,2014-09-05T01:30:00Z,30.2513,-88.0778,1.957,7.09,1111122 
DISL,ioos:station:DISL:DISL:1,2014-09-05T02:00:00Z,30.2513,-88.0778,1.968,7.19,1111122 
DISL,ioos:station:DISL:DISL:1,2014-09-05T02:30:00Z,30.2513,-88.0778,1.979,7.22,1111122 
DISL,ioos:station:DISL:DISL:1,2014-09-05T03:00:00Z,30.2513,-88.0778,2.003,7.33,1111122 
DISL,ioos:station:DISL:DISL:1,2014-09-05T03:30:00Z,30.2513,-88.0778,2.035,6.77,1111122 
DISL,ioos:station:DISL:DISL:1,2014-09-05T04:00:00Z,30.2513,-88.0778,2.053,6.6,1111122 
DISL,ioos:station:DISL:DISL:1,2014-09-05T04:30:00Z,30.2513,-88.0778,2.053,6.27,1111122 
DISL,ioos:station:DISL:DISL:1,2014-09-05T05:00:00Z,30.2513,-88.0778,2.091,6.5,1111122 
DISL,ioos:station:DISL:DISL:1,2014-09-05T05:30:00Z,30.2513,-88.0778,2.111,6.49,1111122 
DISL,ioos:station:DISL:DISL:1,2014-09-05T06:00:00Z,30.2513,-88.0778,2.132,6.31,1111122 
DISL,ioos:station:DISL:DISL:1,2014-09-05T06:30:00Z,30.2513,-88.0778,2.165,6.24,1111122 
DISL,ioos:station:DISL:DISL:1,2014-09-05T07:00:00Z,30.2513,-88.0778,2.192,5.85,1111122 
DISL,ioos:station:DISL:DISL:1,2014-09-05T07:30:00Z,30.2513,-88.0778,2.223,5.44,1111122 
DISL,ioos:station:DISL:DISL:1,2014-09-05T08:00:00Z,30.2513,-88.0778,2.233,5.56,1111122 
DISL,ioos:station:DISL:DISL:1,2014-09-05T08:30:00Z,30.2513,-88.0778,2.263,5.61,1111122 
DISL,ioos:station:DISL:DISL:1,2014-09-05T09:00:00Z,30.2513,-88.0778,2.286,5.86,1111122 
DISL,ioos:station:DISL:DISL:1,2014-09-05T09:30:00Z,30.2513,-88.0778,2.327,6.07,1111122 
DISL,ioos:station:DISL:DISL:1,2014-09-05T10:00:00Z,30.2513,-88.0778,2.337,5.94,1111122 
DISL,ioos:station:DISL:DISL:1,2014-09-05T10:30:00Z,30.2513,-88.0778,2.347,5.96,1111122 
DISL,ioos:station:DISL:DISL:1,2014-09-05T11:00:00Z,30.2513,-88.0778,2.354,5.55,1111122 
DISL,ioos:station:DISL:DISL:1,2014-09-05T11:30:00Z,30.2513,-88.0778,2.363,5.54,1111122 
DISL,ioos:station:DISL:DISL:1,2014-09-05T12:00:00Z,30.2513,-88.0778,2.365,5.32,1111122 
DISL,ioos:station:DISL:DISL:1,2014-09-05T12:30:00Z,30.2513,-88.0778,2.369,5.35,1111122 
DISL,ioos:station:DISL:DISL:1,2014-09-05T13:00:00Z,30.2513,-88.0778,2.345,5.81,1111122 
DISL,ioos:station:DISL:DISL:1,2014-09-05T13:30:00Z,30.2513,-88.0778,2.342,5.76,1111122 
DISL,ioos:station:DISL:DISL:1,2014-09-05T14:00:00Z,30.2513,-88.0778,2.329,6.09,1111122 
DISL,ioos:station:DISL:DISL:1,2014-09-05T14:30:00Z,30.2513,-88.0778,2.331,5.89,1111122 
DISL,ioos:station:DISL:DISL:1,2014-09-05T15:00:00Z,30.2513,-88.0778,2.292,5.29,1111122 
DISL,ioos:station:DISL:DISL:1,2014-09-05T15:30:00Z,30.2513,-88.0778,2.27,5.31,1111122 
DISL,ioos:station:DISL:DISL:1,2014-09-05T16:00:00Z,30.2513,-88.0778,2.248,5.3,1111122 
DISL,ioos:station:DISL:DISL:1,2014-09-05T16:30:00Z,30.2513,-88.0778,2.21,5.35,1111122 
DISL,ioos:station:DISL:DISL:1,2014-09-05T17:00:00Z,30.2513,-88.0778,2.167,6.72,1111122 
DISL,ioos:station:DISL:DISL:1,2014-09-05T17:30:00Z,30.2513,-88.0778,2.134,7.07,1111122 
DISL,ioos:station:DISL:DISL:1,2014-09-05T18:00:00Z,30.2513,-88.0778,2.11,7.29,1111122 
DISL,ioos:station:DISL:DISL:1,2014-09-05T18:30:00Z,30.2513,-88.0778,2.088,7.36,1111122 
DISL,ioos:station:DISL:DISL:1,2014-09-05T19:00:00Z,30.2513,-88.0778,2.049,7.67,1111122 
DISL,ioos:station:DISL:DISL:1,2014-09-05T19:30:00Z,30.2513,-88.0778,2.029,8.18,1111122 
DISL,ioos:station:DISL:DISL:1,2014-09-05T20:00:00Z,30.2513,-88.0778,1.99,8.03,1111122 
DISL,ioos:station:DISL:DISL:1,2014-09-05T20:30:00Z,30.2513,-88.0778,1.978,8.02,1111122 
DISL,ioos:station:DISL:DISL:1,2014-09-05T21:00:00Z,30.2513,-88.0778,1.947,8.62,1111122 
DISL,ioos:station:DISL:DISL:1,2014-09-05T21:30:00Z,30.2513,-88.0778,1.934,8.68,1111122 
DISL,ioos:station:DISL:DISL:1,2014-09-05T22:00:00Z,30.2513,-88.0778,1.926,8.95,1111122 
DISL,ioos:station:DISL:DISL:1,2014-09-05T22:30:00Z,30.2513,-88.0778,1.902,8.7,1111122 
DISL,ioos:station:DISL:DISL:1,2014-09-05T23:00:00Z,30.2513,-88.0778,1.877,8.55,1111122 
DISL,ioos:station:DISL:DISL:1,2014-09-05T23:30:00Z,30.2513,-88.0778,1.876,8.5,1111122 
DISL,ioos:station:DISL:DISL:1,2014-09-06T00:00:00Z,30.2513,-88.0778,1.894,7.71,1111122 
DISL,ioos:station:DISL:DISL:1,2014-09-06T00:30:00Z,30.2513,-88.0778,1.888,7.92,1111122 
DISL,ioos:station:DISL:DISL:1,2014-09-06T01:00:00Z,30.2513,-88.0778,1.903,7.27,1111122 
DISL,ioos:station:DISL:DISL:1,2014-09-06T01:30:00Z,30.2513,-88.0778,2.012,6.55,1111122 
DISL,ioos:station:DISL:DISL:1,2014-09-06T02:00:00Z,30.2513,-88.0778,1.926,6.34,1111122 
DISL,ioos:station:DISL:DISL:1,2014-09-06T02:30:00Z,30.2513,-88.0778,1.943,6.79,1111122 
DISL,ioos:station:DISL:DISL:1,2014-09-06T03:00:00Z,30.2513,-88.0778,1.963,6.9,1111122 
DISL,ioos:station:DISL:DISL:1,2014-09-06T03:30:00Z,30.2513,-88.0778,1.965,7.05,1111122 
DISL,ioos:station:DISL:DISL:1,2014-09-06T04:00:00Z,30.2513,-88.0778,1.993,6.78,1111122 
DISL,ioos:station:DISL:DISL:1,2014-09-06T04:30:00Z,30.2513,-88.0778,2.005,6.94,1111122 
DISL,ioos:station:DISL:DISL:1,2014-09-06T05:00:00Z,30.2513,-88.0778,2.027,7.57,1111122 
DISL,ioos:station:DISL:DISL:1,2014-09-06T05:30:00Z,30.2513,-88.0778,2.052,6.57,1111122 
DISL,ioos:station:DISL:DISL:1,2014-09-06T06:00:00Z,30.2513,-88.0778,2.071,6.68,1111122 
DISL,ioos:station:DISL:DISL:1,2014-09-06T06:30:00Z,30.2513,-88.0778,2.073,6.2,1111122 
DISL,ioos:station:DISL:DISL:1,2014-09-06T07:00:00Z,30.2513,-88.0778,2.104,5.99,1111122 
DISL,ioos:station:DISL:DISL:1,2014-09-06T07:30:00Z,30.2513,-88.0778,2.129,5.71,1111122 
DISL,ioos:station:DISL:DISL:1,2014-09-06T08:00:00Z,30.2513,-88.0778,2.144,5.9,1111122 
DISL,ioos:station:DISL:DISL:1,2014-09-06T08:30:00Z,30.2513,-88.0778,2.178,5.72,1111122 
DISL,ioos:station:DISL:DISL:1,2014-09-06T09:00:00Z,30.2513,-88.0778,2.192,5.65,1111122 
DISL,ioos:station:DISL:DISL:1,2014-09-06T09:30:00Z,30.2513,-88.0778,2.222,5.2,1111122 
DISL,ioos:station:DISL:DISL:1,2014-09-06T10:00:00Z,30.2513,-88.0778,2.218,4.96,1111122 
DISL,ioos:station:DISL:DISL:1,2014-09-06T10:30:00Z,30.2513,-88.0778,2.231,4.98,1111122 
DISL,ioos:station:DISL:DISL:1,2014-09-06T11:00:00Z,30.2513,-88.0778,2.255,5.25,1111122 
DISL,ioos:station:DISL:DISL:1,2014-09-06T11:30:00Z,30.2513,-88.0778,2.287,5.1,1111122 
DISL,ioos:station:DISL:DISL:1,2014-09-06T12:00:00Z,30.2513,-88.0778,2.288,5.28,1111122 
DISL,ioos:station:DISL:DISL:1,2014-09-06T12:30:00Z,30.2513,-88.0778,2.279,5.19,1111122 
DISL,ioos:station:DISL:DISL:1,2014-09-06T13:00:00Z,30.2513,-88.0778,2.285,5.31,1111122 
DISL,ioos:station:DISL:DISL:1,2014-09-06T13:30:00Z,30.2513,-88.0778,2.303,5.18,1111122 
DISL,ioos:station:DISL:DISL:1,2014-09-06T14:00:00Z,30.2513,-88.0778,2.289,5.12,1111122 
DISL,ioos:station:DISL:DISL:1,2014-09-06T14:30:00Z,30.2513,-88.0778,2.301,5.09,1111122 
DISL,ioos:station:DISL:DISL:1,2014-09-06T15:00:00Z,30.2513,-88.0778,2.276,5.18,1111122 
DISL,ioos:station:DISL:DISL:1,2014-09-06T15:30:00Z,30.2513,-88.0778,2.251,5.27,1111122 